Terminal Aerodrome Forecast
Issued by NWS

Home | Current Version | Previous Version | Text Only | Print | Product List | Glossary Off
Versions: 1 2 3 4 5 6 7 8 9 10 11 12 13 14 15 16 17 18 19 20

000
FTUS43 KMPX 151700
TAFAXN
TAF
KAXN 151727Z 1518/1618 15008KT P6SM BKN150
     FM152300 15012KT P6SM OVC080
     FM160600 14014G20KT P6SM VCSH SCT030 OVC060
     FM160900 10018G24KT 3SM -SN OVC025
     FM161500 07017G25KT 1 1/2SM -SN OVC015=

USA.gov is the U.S. government's official web portal to all federal, state and local government web resources and services.